Time,TemperatureF,DewpointF,PressureIn,WindDirection,WindDirectionDegrees,WindSpeedMPH,WindSpeedGustMPH,Humidity,HourlyPrecipIn,Conditions,Clouds,dailyrainin,SoftwareType,DateUTC
2013-04-03 05:04:00,51.1,48.0,29.47,North,10,0.0,0.0,89,0.00,,---,0.00,VWS V13.01,2013-04-03 10:04:00,
2013-04-03 05:09:00,51.1,48.0,29.44,North,351,0.0,0.0,89,0.39,,---,0.04,VWS V13.01,2013-04-03 10:09:00,
2013-04-03 05:14:00,51.1,48.2,29.44,NNE,21,0.0,0.0,90,0.39,,---,0.04,VWS V13.01,2013-04-03 10:14:00,
2013-04-03 05:19:00,51.1,48.2,29.44,ENE,65,0.0,0.0,90,0.39,,---,0.04,VWS V13.01,2013-04-03 10:19:00,
2013-04-03 05:24:00,51.1,48.2,29.44,ENE,74,3.1,6.3,90,0.39,,---,0.04,VWS V13.01,2013-04-03 10:24:00,
2013-04-03 05:29:00,50.7,47.9,29.44,NE,46,0.0,5.8,90,0.39,,---,0.04,VWS V13.01,2013-04-03 10:29:00,
2013-04-03 05:34:00,50.7,47.9,29.44,NNE,14,0.0,0.0,90,0.39,,---,0.04,VWS V13.01,2013-04-03 10:34:00,
2013-04-03 05:39:00,50.7,48.2,29.44,NNE,32,5.4,5.4,91,0.39,,---,0.04,VWS V13.01,2013-04-03 10:39:00,
2013-04-03 05:44:00,50.5,47.7,29.44,NE,56,8.1,8.1,90,0.43,,---,0.08,VWS V13.01,2013-04-03 10:44:00,
2013-04-03 05:49:00,50.4,47.5,29.44,East,97,5.8,6.3,90,0.43,,---,0.08,VWS V13.01,2013-04-03 10:49:00,
2013-04-03 05:54:00,50.2,47.7,29.41,East,96,10.5,10.5,91,0.43,,---,0.08,VWS V13.01,2013-04-03 10:54:00,
2013-04-03 05:59:00,50.0,47.5,29.41,ENE,73,10.5,17.0,91,0.43,,---,0.08,VWS V13.01,2013-04-03 10:59:00,
2013-04-03 06:04:00,50.0,47.8,29.41,ENE,62,8.3,8.3,92,0.47,,---,0.12,VWS V13.01,2013-04-03 11:04:00,
2013-04-03 06:09:00,49.8,47.6,29.38,NNE,25,2.7,2.7,92,0.08,,---,0.12,VWS V13.01,2013-04-03 11:09:00,
2013-04-03 06:14:00,49.8,47.9,29.38,ENE,73,2.7,4.9,93,0.08,,---,0.12,VWS V13.01,2013-04-03 11:14:00,
2013-04-03 06:19:00,49.8,47.6,29.38,NNE,23,3.1,4.0,92,0.08,,---,0.12,VWS V13.01,2013-04-03 11:19:00,
2013-04-03 06:25:00,49.8,47.6,29.41,NE,39,2.7,2.7,92,0.08,,---,0.12,VWS V13.01,2013-04-03 11:25:00,
2013-04-03 06:30:00,49.6,47.4,29.41,ENE,71,3.6,7.6,92,0.08,,---,0.12,VWS V13.01,2013-04-03 11:30:00,
2013-04-03 06:35:00,49.6,47.4,29.41,East,87,7.6,7.6,92,0.08,,---,0.12,VWS V13.01,2013-04-03 11:35:00,
2013-04-03 06:40:00,49.5,47.2,29.38,NE,48,4.0,10.1,92,0.08,,---,0.12,VWS V13.01,2013-04-03 11:40:00,
2013-04-03 06:45:00,49.5,47.2,29.38,ENE,75,10.1,10.1,92,0.04,,---,0.12,VWS V13.01,2013-04-03 11:45:00,
2013-04-03 06:50:00,49.5,47.2,29.38,ENE,73,4.0,8.1,92,0.04,,---,0.12,VWS V13.01,2013-04-03 11:50:00,
2013-04-03 06:55:00,49.5,47.2,29.38,NNE,27,5.8,8.1,92,0.04,,---,0.12,VWS V13.01,2013-04-03 11:55:00,
2013-04-03 07:00:00,49.5,47.2,29.38,ENE,61,8.1,8.1,92,0.04,,---,0.12,VWS V13.01,2013-04-03 12:00:00,
2013-04-03 07:05:00,49.5,47.2,29.38,NE,34,5.4,5.8,92,0.00,,---,0.12,VWS V13.01,2013-04-03 12:05:00,
2013-04-03 07:10:00,49.5,47.2,29.38,NE,52,3.1,7.6,92,0.00,,---,0.12,VWS V13.01,2013-04-03 12:10:00,
2013-04-03 07:15:00,49.3,47.1,29.38,NE,41,7.6,7.6,92,0.00,,---,0.12,VWS V13.01,2013-04-03 12:15:00,
2013-04-03 07:20:00,49.1,46.9,29.38,NE,53,0.0,7.6,92,0.00,,---,0.12,VWS V13.01,2013-04-03 12:20:00,
2013-04-03 07:25:00,49.1,46.9,29.41,North,10,8.1,8.7,92,0.00,,---,0.12,VWS V13.01,2013-04-03 12:25:00,
2013-04-03 07:30:00,49.1,46.9,29.41,NW,320,7.6,12.3,92,0.00,,---,0.12,VWS V13.01,2013-04-03 12:30:00,
2013-04-03 07:35:00,48.9,46.7,29.41,NNE,13,5.4,6.3,92,0.00,,---,0.12,VWS V13.01,2013-04-03 12:35:00,
2013-04-03 07:40:00,48.9,46.4,29.44,NNW,328,6.3,9.2,91,0.00,,---,0.12,VWS V13.01,2013-04-03 12:40:00,
2013-04-03 07:45:00,48.9,46.4,29.44,North,353,2.7,7.6,91,0.00,,---,0.12,VWS V13.01,2013-04-03 12:45:00,
2013-04-03 07:50:00,48.7,45.9,29.44,NNE,15,6.3,7.6,90,0.00,,---,0.12,VWS V13.01,2013-04-03 12:50:00,
2013-04-03 07:55:00,48.6,45.8,29.47,NNW,330,3.1,6.3,90,0.00,,---,0.12,VWS V13.01,2013-04-03 12:55:00,
2013-04-03 08:00:00,48.4,45.6,29.47,NNE,16,6.3,8.3,90,0.00,,---,0.12,VWS V13.01,2013-04-03 13:00:00,
2013-04-03 08:05:00,48.2,45.1,29.47,NNE,20,10.5,10.5,89,0.00,,---,0.12,VWS V13.01,2013-04-03 13:05:00,
2013-04-03 08:10:00,48.0,44.9,29.47,NNW,345,5.8,7.2,89,0.00,,---,0.12,VWS V13.01,2013-04-03 13:10:00,
2013-04-03 08:15:00,47.8,44.5,29.47,North,356,10.1,12.3,88,0.00,,---,0.12,VWS V13.01,2013-04-03 13:15:00,
2013-04-03 08:20:00,47.7,44.3,29.47,NNW,340,7.2,7.2,88,0.00,,---,0.12,VWS V13.01,2013-04-03 13:20:00,
2013-04-03 08:24:00,47.7,44.6,29.47,NE,36,5.8,9.6,89,0.00,,---,0.12,VWS V13.01,2013-04-03 13:24:00,
2013-04-03 08:29:00,47.7,44.6,29.47,North,357,4.9,8.1,89,0.00,,---,0.12,VWS V13.01,2013-04-03 13:29:00,
2013-04-03 08:34:00,47.7,44.9,29.47,NNW,343,5.8,5.8,90,0.00,,---,0.12,VWS V13.01,2013-04-03 13:34:00,
2013-04-03 08:39:00,47.8,45.0,29.47,NNE,21,3.1,4.0,90,0.00,,---,0.12,VWS V13.01,2013-04-03 13:39:00,
2013-04-03 08:44:00,47.7,44.9,29.47,NNE,18,5.4,10.1,90,0.00,,---,0.12,VWS V13.01,2013-04-03 13:44:00,
2013-04-03 08:49:00,47.5,44.7,29.47,NNE,26,5.4,8.3,90,0.00,,---,0.12,VWS V13.01,2013-04-03 13:49:00,
2013-04-03 08:54:00,47.3,44.2,29.47,NNW,344,5.4,8.1,89,0.00,,---,0.12,VWS V13.01,2013-04-03 13:54:00,
2013-04-03 08:59:00,47.3,44.2,29.47,NNE,21,6.3,6.3,89,0.00,,---,0.12,VWS V13.01,2013-04-03 13:59:00,
2013-04-03 09:04:00,47.3,44.5,29.47,North,5,7.6,9.6,90,0.00,,---,0.12,VWS V13.01,2013-04-03 14:04:00,
2013-04-03 09:09:00,47.5,44.4,29.47,NNE,33,6.3,6.3,89,0.00,,---,0.12,VWS V13.01,2013-04-03 14:09:00,
2013-04-03 09:14:00,47.5,44.7,29.47,NNE,25,11.0,13.2,90,0.00,,---,0.12,VWS V13.01,2013-04-03 14:14:00,
2013-04-03 09:19:00,47.5,44.4,29.47,North,7,8.3,10.5,89,0.00,,---,0.12,VWS V13.01,2013-04-03 14:19:00,
2013-04-03 09:24:00,47.5,44.4,29.50,North,353,3.1,6.3,89,0.00,,---,0.12,VWS V13.01,2013-04-03 14:24:00,
2013-04-03 09:29:00,47.7,44.6,29.50,NNE,29,4.0,6.7,89,0.00,,---,0.12,VWS V13.01,2013-04-03 14:29:00,
2013-04-03 09:34:00,47.7,44.6,29.50,NNW,333,5.4,8.1,89,0.00,,---,0.12,VWS V13.01,2013-04-03 14:34:00,
2013-04-03 09:39:00,47.7,44.6,29.50,NE,35,0.0,2.7,89,0.00,,---,0.12,VWS V13.01,2013-04-03 14:39:00,
2013-04-03 09:44:00,47.7,44.6,29.50,North,4,8.1,8.1,89,0.00,,---,0.12,VWS V13.01,2013-04-03 14:44:00,
2013-04-03 09:49:00,47.7,44.6,29.50,NE,38,6.3,6.3,89,0.00,,---,0.12,VWS V13.01,2013-04-03 14:49:00,
2013-04-03 09:54:00,47.8,44.8,29.50,NNE,16,0.0,3.6,89,0.00,,---,0.12,VWS V13.01,2013-04-03 14:54:00,
2013-04-03 09:59:00,47.8,44.5,29.50,NE,55,7.6,7.6,88,0.00,,---,0.12,VWS V13.01,2013-04-03 14:59:00,
2013-04-03 10:04:00,48.0,44.6,29.50,North,357,3.6,5.4,88,0.00,,---,0.12,VWS V13.01,2013-04-03 15:04:00,
2013-04-03 10:09:00,48.0,44.6,29.50,ENE,76,5.4,6.3,88,0.00,,---,0.12,VWS V13.01,2013-04-03 15:09:00,
2013-04-03 10:14:00,48.2,44.8,29.50,North,1,2.2,6.3,88,0.00,,---,0.12,VWS V13.01,2013-04-03 15:14:00,
2013-04-03 10:19:00,48.2,44.8,29.50,NNE,17,3.6,4.9,88,0.00,,---,0.12,VWS V13.01,2013-04-03 15:19:00,
2013-04-03 10:24:00,48.0,44.3,29.50,NE,55,2.7,2.7,87,0.00,,---,0.12,VWS V13.01,2013-04-03 15:24:00,
2013-04-03 10:29:00,48.0,44.3,29.50,North,357,4.0,10.5,87,0.00,,---,0.12,VWS V13.01,2013-04-03 15:29:00,
2013-04-03 10:34:00,48.0,44.3,29.50,ENE,70,6.3,7.2,87,0.00,,---,0.12,VWS V13.01,2013-04-03 15:34:00,
2013-04-03 10:39:00,48.0,44.3,29.50,ENE,57,0.0,2.7,87,0.00,,---,0.12,VWS V13.01,2013-04-03 15:39:00,
2013-04-03 10:44:00,48.2,44.5,29.50,NE,47,4.5,4.5,87,0.00,,---,0.12,VWS V13.01,2013-04-03 15:44:00,
2013-04-03 10:49:00,48.2,44.5,29.50,NNE,28,4.5,4.9,87,0.00,,---,0.12,VWS V13.01,2013-04-03 15:49:00,
2013-04-03 10:54:00,48.4,44.7,29.50,NE,47,3.6,4.9,87,0.00,,---,0.12,VWS V13.01,2013-04-03 15:54:00,
2013-04-03 11:00:00,48.4,44.4,29.50,NNE,25,2.7,3.6,86,0.00,,---,0.12,VWS V13.01,2013-04-03 16:00:00,
2013-04-03 11:05:00,48.4,44.4,29.50,NNE,31,3.1,7.6,86,0.00,,---,0.12,VWS V13.01,2013-04-03 16:05:00,
2013-04-03 11:10:00,48.6,44.6,29.50,NE,34,3.6,4.5,86,0.00,,---,0.12,VWS V13.01,2013-04-03 16:10:00,
2013-04-03 11:15:00,48.6,44.3,29.50,North,0,7.6,7.6,85,0.00,,---,0.12,VWS V13.01,2013-04-03 16:15:00,
2013-04-03 11:20:00,48.7,44.4,29.50,ENE,69,2.7,5.4,85,0.00,,---,0.12,VWS V13.01,2013-04-03 16:20:00,
2013-04-03 11:25:00,48.6,44.3,29.50,NE,41,8.3,8.3,85,0.00,,---,0.12,VWS V13.01,2013-04-03 16:25:00,
2013-04-03 11:30:00,48.6,44.0,29.50,North,6,3.1,6.7,84,0.00,,---,0.12,VWS V13.01,2013-04-03 16:30:00,
2013-04-03 11:35:00,48.6,44.0,29.50,North,11,4.0,5.4,84,0.00,,---,0.12,VWS V13.01,2013-04-03 16:35:00,
2013-04-03 11:40:00,48.7,44.1,29.50,NE,44,5.8,5.8,84,0.00,,---,0.12,VWS V13.01,2013-04-03 16:40:00,
2013-04-03 11:45:00,48.9,44.3,29.50,ENE,63,7.6,7.6,84,0.00,,---,0.12,VWS V13.01,2013-04-03 16:45:00,
2013-04-03 11:50:00,48.9,44.0,29.50,NE,39,5.4,5.4,83,0.00,,---,0.12,VWS V13.01,2013-04-03 16:50:00,
2013-04-03 11:55:00,48.9,43.7,29.50,ENE,58,3.6,3.6,82,0.00,,---,0.12,VWS V13.01,2013-04-03 16:55:00,
2013-04-03 12:00:00,49.1,43.8,29.50,ENE,64,2.7,2.7,82,0.00,,---,0.12,VWS V13.01,2013-04-03 17:00:00,
2013-04-03 12:05:00,49.3,44.0,29.50,NE,49,2.7,2.7,82,0.00,,---,0.12,VWS V13.01,2013-04-03 17:05:00,
2013-04-03 12:10:00,49.3,43.7,29.53,NE,55,0.0,4.0,81,0.00,,---,0.12,VWS V13.01,2013-04-03 17:10:00,
2013-04-03 12:15:00,49.5,43.9,29.53,North,7,4.9,4.9,81,0.00,,---,0.12,VWS V13.01,2013-04-03 17:15:00,
2013-04-03 12:20:00,49.5,44.2,29.53,NNW,343,0.0,2.2,82,0.00,,---,0.12,VWS V13.01,2013-04-03 17:20:00,
2013-04-03 12:25:00,49.3,44.0,29.50,ENE,57,0.0,4.9,82,0.00,,---,0.12,VWS V13.01,2013-04-03 17:25:00,
2013-04-03 12:30:00,49.1,43.8,29.50,North,5,7.2,7.2,82,0.00,,---,0.12,VWS V13.01,2013-04-03 17:30:00,
2013-04-03 12:35:00,48.7,43.5,29.50,NNW,341,3.1,8.7,82,0.00,,---,0.12,VWS V13.01,2013-04-03 17:35:00,
2013-04-03 12:40:00,48.7,43.8,29.50,North,11,4.9,7.6,83,0.00,,---,0.12,VWS V13.01,2013-04-03 17:40:00,
2013-04-03 12:45:00,48.7,43.8,29.50,NNW,346,6.3,6.3,83,0.00,,---,0.12,VWS V13.01,2013-04-03 17:45:00,
2013-04-03 12:50:00,48.7,43.8,29.50,NNW,343,0.0,4.0,83,0.00,,---,0.12,VWS V13.01,2013-04-03 17:50:00,
2013-04-03 12:55:00,48.7,44.1,29.50,North,6,5.8,5.8,84,0.00,,---,0.12,VWS V13.01,2013-04-03 17:55:00,
2013-04-03 13:00:00,48.7,43.8,29.50,NNE,24,2.2,5.8,83,0.00,,---,0.12,VWS V13.01,2013-04-03 18:00:00,
2013-04-03 13:05:00,48.9,44.0,29.50,NNE,25,3.6,3.6,83,0.00,,---,0.12,VWS V13.01,2013-04-03 18:05:00,
2013-04-03 13:10:00,48.7,43.5,29.50,NNE,22,7.2,7.2,82,0.00,,---,0.12,VWS V13.01,2013-04-03 18:10:00,
2013-04-03 13:16:00,48.7,43.5,29.50,North,351,6.3,6.3,82,0.00,,---,0.12,VWS V13.01,2013-04-03 18:16:00,
2013-04-03 13:21:00,48.9,43.7,29.50,NNE,13,5.8,6.3,82,0.00,,---,0.12,VWS V13.01,2013-04-03 18:21:00,
2013-04-03 13:25:00,49.1,43.8,29.50,NNW,345,0.0,2.7,82,0.00,,---,0.12,VWS V13.01,2013-04-03 18:25:00,
2013-04-03 13:31:00,48.9,43.7,29.50,North,357,5.4,5.4,82,0.00,,---,0.12,VWS V13.01,2013-04-03 18:31:00,
2013-04-03 13:36:00,48.9,43.3,29.50,North,0,5.8,6.3,81,0.00,,---,0.12,VWS V13.01,2013-04-03 18:36:00,
2013-04-03 13:41:00,49.1,43.5,29.50,NNE,25,3.6,7.6,81,0.00,,---,0.12,VWS V13.01,2013-04-03 18:41:00,
2013-04-03 13:46:00,49.1,43.2,29.50,NE,46,4.0,4.0,80,0.00,,---,0.12,VWS V13.01,2013-04-03 18:46:00,
2013-04-03 13:51:00,49.1,42.9,29.50,NNE,25,5.8,6.3,79,0.00,,---,0.12,VWS V13.01,2013-04-03 18:51:00,
2013-04-03 13:56:00,49.3,43.0,29.50,North,9,3.6,6.3,79,0.00,,---,0.12,VWS V13.01,2013-04-03 18:56:00,
2013-04-03 14:00:00,49.5,43.6,29.50,NW,325,0.0,0.0,80,0.00,,---,0.12,VWS V13.01,2013-04-03 19:00:00,
2013-04-03 14:05:00,49.5,42.9,29.50,NE,54,3.1,3.6,78,0.00,,---,0.12,VWS V13.01,2013-04-03 19:05:00,
2013-04-03 14:11:00,49.6,43.1,29.50,North,5,8.3,8.3,78,0.00,,---,0.12,VWS V13.01,2013-04-03 19:11:00,
2013-04-03 14:16:00,49.6,42.7,29.50,NE,53,5.4,9.6,77,0.00,,---,0.12,VWS V13.01,2013-04-03 19:16:00,
2013-04-03 14:21:00,49.8,43.2,29.50,North,5,0.0,2.7,78,0.00,,---,0.12,VWS V13.01,2013-04-03 19:21:00,
2013-04-03 14:26:00,49.8,42.6,29.50,NE,45,3.1,4.0,76,0.00,,---,0.12,VWS V13.01,2013-04-03 19:26:00,
2013-04-03 14:31:00,50.0,42.7,29.50,North,357,0.0,6.3,76,0.00,,---,0.12,VWS V13.01,2013-04-03 19:31:00,
2013-04-03 14:36:00,50.2,42.9,29.50,North,3,3.6,3.6,76,0.00,,---,0.12,VWS V13.01,2013-04-03 19:36:00,
2013-04-03 14:41:00,50.2,42.9,29.50,NE,39,4.9,7.6,76,0.00,,---,0.12,VWS V13.01,2013-04-03 19:41:00,
2013-04-03 14:46:00,50.2,42.6,29.50,NE,44,3.1,4.0,75,0.00,,---,0.12,VWS V13.01,2013-04-03 19:46:00,
2013-04-03 14:51:00,50.2,42.6,29.50,NNE,33,3.6,6.3,75,0.00,,---,0.12,VWS V13.01,2013-04-03 19:51:00,
2013-04-03 14:56:00,50.4,42.8,29.47,NE,54,4.0,5.8,75,0.00,,---,0.12,VWS V13.01,2013-04-03 19:56:00,
2013-04-03 15:01:00,50.4,42.8,29.47,North,357,5.4,6.3,75,0.00,,---,0.12,VWS V13.01,2013-04-03 20:01:00,
2013-04-03 15:06:00,50.7,43.1,29.47,NE,54,3.1,9.6,75,0.00,,---,0.12,VWS V13.01,2013-04-03 20:06:00,
2013-04-03 15:11:00,51.1,43.1,29.47,NNE,14,3.6,4.0,74,0.00,,---,0.12,VWS V13.01,2013-04-03 20:11:00,
2013-04-03 15:16:00,51.3,42.9,29.47,NE,43,5.8,6.3,73,0.00,,---,0.12,VWS V13.01,2013-04-03 20:16:00,
2013-04-03 15:21:00,51.4,42.7,29.47,North,11,2.7,6.3,72,0.00,,---,0.12,VWS V13.01,2013-04-03 20:21:00,
2013-04-03 15:26:00,51.4,42.7,29.47,NE,44,4.0,8.7,72,0.00,,---,0.12,VWS V13.01,2013-04-03 20:26:00,
2013-04-03 15:31:00,51.3,42.5,29.47,NNE,29,0.0,3.6,72,0.00,,---,0.12,VWS V13.01,2013-04-03 20:31:00,
2013-04-03 15:36:00,51.4,42.7,29.47,NE,50,3.1,6.3,72,0.00,,---,0.12,VWS V13.01,2013-04-03 20:36:00,
2013-04-03 15:41:00,51.4,43.1,29.47,NE,50,4.0,6.3,73,0.00,,---,0.12,VWS V13.01,2013-04-03 20:41:00,
2013-04-03 15:46:00,51.6,42.9,29.47,NE,54,2.7,5.4,72,0.00,,---,0.12,VWS V13.01,2013-04-03 20:46:00,
2013-04-03 15:51:00,51.6,42.9,29.47,North,353,4.0,7.6,72,0.00,,---,0.12,VWS V13.01,2013-04-03 20:51:00,
2013-04-03 15:56:00,51.8,42.7,29.47,NNE,33,5.4,8.1,71,0.00,,---,0.12,VWS V13.01,2013-04-03 20:56:00,
2013-04-03 16:02:00,51.8,42.7,29.47,NNE,33,4.0,4.0,71,0.00,,---,0.12,VWS V13.01,2013-04-03 21:02:00,
2013-04-03 16:07:00,52.0,42.9,29.47,NNE,28,3.6,5.8,71,0.00,,---,0.12,VWS V13.01,2013-04-03 21:07:00,
2013-04-03 16:12:00,52.0,42.9,29.47,North,6,0.0,8.1,71,0.00,,---,0.12,VWS V13.01,2013-04-03 21:12:00,
2013-04-03 16:17:00,52.0,42.5,29.47,WNW,292,0.0,3.6,70,0.00,,---,0.12,VWS V13.01,2013-04-03 21:17:00,
2013-04-03 16:22:00,52.0,42.9,29.47,NNW,340,3.6,4.5,71,0.00,,---,0.12,VWS V13.01,2013-04-03 21:22:00,
2013-04-03 16:27:00,51.8,42.7,29.50,NNW,337,2.2,4.0,71,0.00,,---,0.12,VWS V13.01,2013-04-03 21:27:00,
2013-04-03 16:32:00,51.8,42.7,29.50,North,353,6.3,6.3,71,0.00,,---,0.12,VWS V13.01,2013-04-03 21:32:00,
2013-04-03 16:37:00,51.8,42.7,29.50,NNW,339,2.2,2.2,71,0.00,,---,0.12,VWS V13.01,2013-04-03 21:37:00,
2013-04-03 16:42:00,52.0,43.2,29.50,WNW,290,6.3,7.2,72,0.00,,---,0.12,VWS V13.01,2013-04-03 21:42:00,
2013-04-03 16:47:00,51.8,43.1,29.50,North,356,4.0,4.0,72,0.00,,---,0.12,VWS V13.01,2013-04-03 21:47:00,
2013-04-03 16:52:00,51.8,43.1,29.50,NNE,13,5.4,8.3,72,0.00,,---,0.12,VWS V13.01,2013-04-03 21:52:00,
2013-04-03 16:57:00,51.6,43.6,29.50,North,356,5.4,8.7,74,0.00,,---,0.12,VWS V13.01,2013-04-03 21:57:00,
2013-04-03 17:02:00,51.4,44.1,29.50,NNE,14,3.6,5.8,76,0.00,,---,0.12,VWS V13.01,2013-04-03 22:02:00,
2013-04-03 17:07:00,51.4,44.8,29.50,NE,56,3.6,4.5,78,0.00,,---,0.12,VWS V13.01,2013-04-03 22:07:00,
2013-04-03 17:12:00,51.1,44.8,29.50,NNE,13,3.1,8.3,79,0.00,,---,0.12,VWS V13.01,2013-04-03 22:12:00,
2013-04-03 17:17:00,51.1,45.1,29.50,NNE,18,2.2,5.4,80,0.00,,---,0.12,VWS V13.01,2013-04-03 22:17:00,
2013-04-03 17:22:00,51.1,45.5,29.50,NNW,334,3.1,3.1,81,0.00,,---,0.12,VWS V13.01,2013-04-03 22:22:00,
2013-04-03 17:27:00,50.9,45.9,29.50,WNW,297,2.2,3.1,83,0.00,,---,0.12,VWS V13.01,2013-04-03 22:27:00,
2013-04-03 17:32:00,50.9,45.9,29.50,NW,318,3.6,3.6,83,0.00,,---,0.12,VWS V13.01,2013-04-03 22:32:00,
2013-04-03 17:37:00,50.9,46.2,29.50,NNW,328,2.7,3.6,84,0.00,,---,0.12,VWS V13.01,2013-04-03 22:37:00,
2013-04-03 17:42:00,50.9,46.2,29.47,North,350,2.2,3.6,84,0.00,,---,0.12,VWS V13.01,2013-04-03 22:42:00,
2013-04-03 17:47:00,50.7,46.1,29.47,NW,321,4.0,6.3,84,0.00,,---,0.12,VWS V13.01,2013-04-03 22:47:00,
2013-04-03 17:52:00,50.7,45.8,29.47,WNW,290,5.4,5.4,83,0.00,,---,0.12,VWS V13.01,2013-04-03 22:52:00,
2013-04-03 17:57:00,50.5,45.3,29.47,NNW,335,3.6,3.6,82,0.00,,---,0.12,VWS V13.01,2013-04-03 22:57:00,
2013-04-03 18:02:00,50.5,44.9,29.47,NNE,17,2.7,2.7,81,0.00,,---,0.12,VWS V13.01,2013-04-03 23:02:00,
2013-04-03 18:07:00,50.7,44.8,29.47,NE,35,7.6,7.6,80,0.00,,---,0.12,VWS V13.01,2013-04-03 23:07:00,
2013-04-03 18:12:00,50.7,43.4,29.47,NNW,341,7.6,11.4,76,0.00,,---,0.12,VWS V13.01,2013-04-03 23:12:00,
2013-04-03 18:17:00,50.7,43.1,29.47,ENE,59,15.4,15.4,75,0.00,,---,0.12,VWS V13.01,2013-04-03 23:17:00,
2013-04-03 18:22:00,50.7,44.1,29.47,NE,35,6.3,15.4,78,0.04,,---,0.16,VWS V13.01,2013-04-03 23:22:00,
2013-04-03 18:27:00,50.4,44.4,29.44,NNE,32,6.7,6.7,80,0.04,,---,0.16,VWS V13.01,2013-04-03 23:27:00,
2013-04-03 18:32:00,50.0,44.7,29.44,NE,55,8.7,8.7,82,0.04,,---,0.16,VWS V13.01,2013-04-03 23:32:00,
2013-04-03 18:37:00,50.0,45.0,29.44,NNE,33,6.3,10.1,83,0.04,,---,0.20,VWS V13.01,2013-04-03 23:37:00,
2013-04-03 18:42:00,49.8,45.2,29.44,NE,34,3.1,6.3,84,0.08,,---,0.20,VWS V13.01,2013-04-03 23:42:00,
2013-04-03 18:47:00,49.8,45.5,29.44,ENE,66,5.4,5.8,85,0.08,,---,0.20,VWS V13.01,2013-04-03 23:47:00,
2013-04-03 18:52:00,49.6,45.6,29.44,NNW,339,3.6,3.6,86,0.08,,---,0.20,VWS V13.01,2013-04-03 23:52:00,
2013-04-03 18:57:00,49.6,45.6,29.47,North,1,2.7,5.4,86,0.08,,---,0.20,VWS V13.01,2013-04-03 23:57:00,
2013-04-03 19:02:00,49.6,45.6,29.47,West,278,5.8,5.8,86,0.12,,---,0.24,VWS V13.01,2013-04-04 00:02:00,
2013-04-03 19:07:00,49.6,45.9,29.47,NW,310,4.9,5.4,87,0.12,,---,0.24,VWS V13.01,2013-04-04 00:07:00,
2013-04-03 19:12:00,49.6,45.9,29.50,WNW,300,0.0,0.0,87,0.12,,---,0.24,VWS V13.01,2013-04-04 00:12:00,
2013-04-03 19:17:00,49.6,46.2,29.50,NW,307,0.0,0.0,88,0.16,,---,0.28,VWS V13.01,2013-04-04 00:17:00,
2013-04-03 19:22:00,49.8,46.7,29.50,NW,311,3.6,3.6,89,0.16,,---,0.28,VWS V13.01,2013-04-04 00:22:00,
2013-04-03 19:27:00,49.6,46.5,29.47,NE,47,6.3,6.3,89,0.16,,---,0.31,VWS V13.01,2013-04-04 00:27:00,
2013-04-03 19:32:00,49.5,46.4,29.47,NNE,15,5.4,5.4,89,0.16,,---,0.31,VWS V13.01,2013-04-04 00:32:00,
2013-04-03 19:37:00,49.5,46.7,29.47,WNW,289,3.6,5.4,90,0.20,,---,0.35,VWS V13.01,2013-04-04 00:37:00,
2013-04-03 19:42:00,49.5,46.7,29.50,NW,320,2.7,3.6,90,0.16,,---,0.35,VWS V13.01,2013-04-04 00:42:00,
2013-04-03 19:47:00,49.5,47.0,29.50,NNW,339,0.0,4.9,91,0.16,,---,0.39,VWS V13.01,2013-04-04 00:47:00,
2013-04-03 19:52:00,49.3,46.8,29.50,NW,324,4.0,5.8,91,0.20,,---,0.39,VWS V13.01,2013-04-04 00:52:00,
2013-04-03 19:57:00,49.1,46.6,29.50,NNW,336,3.1,5.4,91,0.20,,---,0.39,VWS V13.01,2013-04-04 00:57:00,
2013-04-03 20:02:00,49.1,46.3,29.50,NW,316,0.0,0.0,90,0.16,,---,0.39,VWS V13.01,2013-04-04 01:02:00,
2013-04-03 20:07:00,49.1,46.3,29.50,NW,316,0.0,0.0,90,0.16,,---,0.39,VWS V13.01,2013-04-04 01:07:00,
2013-04-03 20:12:00,49.1,46.3,29.50,NW,316,0.0,0.0,90,0.16,,---,0.39,VWS V13.01,2013-04-04 01:12:00,
2013-04-03 20:17:00,49.1,46.3,29.50,NW,316,0.0,0.0,90,0.12,,---,0.39,VWS V13.01,2013-04-04 01:17:00,
2013-04-03 20:22:00,49.1,46.3,29.50,NW,316,0.0,0.0,90,0.12,,---,0.39,VWS V13.01,2013-04-04 01:22:00,
2013-04-03 20:27:00,49.1,46.3,29.50,NW,316,0.0,0.0,90,0.08,,---,0.39,VWS V13.01,2013-04-04 01:27:00,
2013-04-03 20:32:00,49.1,46.3,29.50,NW,316,0.0,0.0,90,0.08,,---,0.39,VWS V13.01,2013-04-04 01:32:00,
2013-04-03 20:37:00,49.1,46.3,29.50,NW,316,0.0,0.0,90,0.04,,---,0.39,VWS V13.01,2013-04-04 01:37:00,
2013-04-03 20:42:00,49.1,46.3,29.50,NW,316,0.0,0.0,90,0.04,,---,0.39,VWS V13.01,2013-04-04 01:42:00,
2013-04-03 20:47:00,49.1,46.3,29.50,NW,316,0.0,0.0,90,0.04,,---,0.39,VWS V13.01,2013-04-04 01:47:00,
2013-04-03 20:52:00,49.1,46.3,29.50,NW,316,0.0,0.0,90,0.00,,---,0.39,VWS V13.01,2013-04-04 01:52:00,
2013-04-03 20:57:00,49.1,46.3,29.50,NW,316,0.0,0.0,90,0.00,,---,0.39,VWS V13.01,2013-04-04 01:57:00,
2013-04-03 21:02:00,49.1,46.3,29.50,NW,316,0.0,0.0,90,0.00,,---,0.39,VWS V13.01,2013-04-04 02:02:00,
2013-04-03 21:07:00,49.1,46.6,29.50,NNE,13,4.9,4.9,91,0.04,,---,0.43,VWS V13.01,2013-04-04 02:07:00,
2013-04-03 21:12:00,49.1,46.6,29.53,NNW,332,4.0,4.0,91,0.04,,---,0.43,VWS V13.01,2013-04-04 02:12:00,
2013-04-03 21:17:00,48.9,46.1,29.53,North,357,3.6,3.6,90,0.04,,---,0.43,VWS V13.01,2013-04-04 02:17:00,